Weather History for Sauk Centre, MN

Change the Weather History Date:

Friday, January 17, 2014

  Actual Average (KGHW) Record (KGHW)
Temperature  
Mean Temperature 0 °F -  
Max Temperature 9 °F 21 °F 44 °F (1973)
Min Temperature -8 °F 1 °F -32 °F (1954)
Degree Days  
Heating Degree Days 64    
Moisture  
Dew Point -6 °F    
Average Humidity 76    
Maximum Humidity 85    
Minimum Humidity 69    
Precipitation  
Precipitation 0.00 in - - ()
Sea Level Pressure  
Sea Level Pressure 29.94 in    
Wind  
Wind Speed 11 mph (WNW)    
Max Wind Speed 18 mph    
Max Gust Speed 23 mph    
Visibility 10 miles    
Events Snow    
Averages and records for this station are not official NWS values.
T = Trace of Precipitation, MM = Missing Value Source: NWS Daily Summary

Daily Weather History Graph

Daily Weather History Graph

Search for Another Location

Airport:

Trip Planner

Search our weather history database for the weather conditions in past years. The results will help you decide how hot, cold, wet, or windy it might be!

Date:

Astronomy

Jan. 17, 2014 Rise Set
Actual Time 7:55 AM CST 5:04 PM CST
Civil Twilight 7:22 AM CST 5:37 PM CST
Nautical Twilight 6:45 AM CST 6:14 PM CST
Astronomical Twilight 6:10 AM CST 6:50 PM CST
Moon 7:00 PM CST (1/17) 8:16 AM CST (1/17)
Length of Visible Light 10h 15m
Length of Day
9h 09m
Full, 98% of the Moon is Illuminated
Jan 17
Full
Jan 23
Last Quarter
Jan 30
New
Feb 6
First Quarter
Feb 14
Full

Hourly Weather History & Observations

Time (CST) Temp. Windchill Dew Point Humidity Pressure Visibility Wind Dir Wind Speed Gust Speed Precip Events Conditions
12:12 AM -2.2 °F -22.9 °F -7.6 °F 78% 29.95 in 10.0 mi NNW 16.1 mph - N/A   Clear
12:33 AM -2.4 °F -21.7 °F -8.0 °F 77% 29.95 in 10.0 mi NNW 13.8 mph - N/A   Clear
12:53 AM -2.7 °F -22.1 °F -8.0 °F 78% 29.96 in 10.0 mi NNW 13.8 mph - N/A   Clear
1:12 AM -3.1 °F -21.8 °F -8.1 °F 79% 29.96 in 10.0 mi NNW 12.7 mph - N/A   Clear
1:33 AM -3.5 °F -22.3 °F -8.5 °F 79% 29.96 in 10.0 mi NNW 12.7 mph - N/A   Clear
1:52 AM -3.6 °F -23.3 °F -8.5 °F 80% 29.97 in 10.0 mi NW 13.8 mph - N/A   Clear
2:13 AM -4.0 °F -23.7 °F -9.0 °F 79% 29.97 in 10.0 mi NW 13.8 mph 18.4 mph N/A   Clear
2:33 AM -4.2 °F -24.7 °F -9.4 °F 78% 29.98 in 10.0 mi NW 15.0 mph - N/A   Clear
2:52 AM -4.4 °F -26.3 °F -9.4 °F 79% 29.98 in 10.0 mi NNW 17.3 mph - N/A   Clear
3:13 AM -4.5 °F -25.9 °F -9.4 °F 80% 29.98 in 10.0 mi NW 16.1 mph 21.9 mph N/A   Clear
3:33 AM -4.9 °F -26.3 °F -9.8 °F 80% 29.99 in 10.0 mi NW 16.1 mph - N/A   Clear
3:52 AM -5.1 °F -27.8 °F -10.1 °F 79% 29.99 in 10.0 mi NW 18.4 mph 23.0 mph N/A   Clear
4:13 AM -5.6 °F -25.8 °F -10.5 °F 79% 29.99 in 10.0 mi NW 13.8 mph - N/A   Clear
4:33 AM -5.8 °F -26.8 °F -10.5 °F 80% 30.00 in 10.0 mi NW 15.0 mph 19.6 mph N/A   Clear
4:52 AM -5.8 °F -27.5 °F -10.5 °F 80% 30.01 in 10.0 mi NW 16.1 mph - N/A   Clear
5:13 AM -6.2 °F -25.7 °F -11.2 °F 79% 30.01 in 10.0 mi NW 12.7 mph - N/A   Clear
5:33 AM -6.3 °F -25.9 °F -11.2 °F 79% 30.02 in 10.0 mi NW 12.7 mph - N/A   Clear
5:52 AM -6.7 °F -25.5 °F -11.4 °F 80% 30.03 in 10.0 mi NW 11.5 mph - N/A   Clear
6:13 AM -6.9 °F -25.7 °F -11.6 °F 80% 30.03 in 10.0 mi NNW 11.5 mph - N/A   Clear
6:33 AM -7.2 °F -25.2 °F -12.1 °F 79% 30.03 in 10.0 mi NW 10.4 mph - N/A   Clear
6:52 AM -7.6 °F -27.5 °F -12.3 °F 80% 30.03 in 10.0 mi NW 12.7 mph - N/A   Clear
7:13 AM -7.6 °F -26.6 °F -12.3 °F 80% 30.03 in 10.0 mi NW 11.5 mph - N/A   Clear
7:33 AM -8.0 °F -26.1 °F -12.5 °F 81% 30.04 in 10.0 mi NW 10.4 mph - N/A   Clear
7:52 AM -8.1 °F -24.1 °F -12.6 °F 81% 30.04 in 10.0 mi NW 8.1 mph - N/A   Clear
8:13 AM -8.5 °F -25.7 °F -13.0 °F 81% 30.04 in 10.0 mi NW 9.2 mph - N/A   Clear
8:33 AM -8.1 °F -26.3 °F -13.0 °F 79% 30.04 in 10.0 mi NW 10.4 mph - N/A   Clear
8:52 AM -8.0 °F -26.1 °F -13.0 °F 79% 30.04 in 10.0 mi NW 10.4 mph - N/A   Clear
9:13 AM -6.9 °F -23.7 °F -12.3 °F 77% 30.03 in 7.0 mi NNW 9.2 mph - N/A   Clear
9:33 AM -6.5 °F -19.3 °F -12.1 °F 77% 30.04 in 10.0 mi NW 5.8 mph - N/A   Clear
9:52 AM -5.6 °F -21.0 °F -11.4 °F 76% 30.04 in 10.0 mi NW 8.1 mph - N/A   Clear
10:13 AM -4.9 °F -20.1 °F -10.8 °F 76% 30.05 in 10.0 mi WNW 8.1 mph - N/A   Clear
10:33 AM -4.2 °F -18.0 °F -10.3 °F 75% 30.05 in 10.0 mi NNW 6.9 mph - N/A   Clear
10:53 AM -3.8 °F -16.1 °F -9.9 °F 75% 30.05 in 10.0 mi NNW 5.8 mph - N/A   Clear
11:13 AM -2.4 °F -12.7 °F -8.9 °F 74% 30.04 in 10.0 mi NW 4.6 mph - N/A   Clear
11:32 AM -1.1 °F -11.2 °F -8.1 °F 72% 30.04 in 10.0 mi WNW 4.6 mph - N/A   Clear
11:53 AM -0.6 °F - -7.8 °F 72% 30.03 in 10.0 mi Calm Calm - N/A   Clear
12:13 PM 0.9 °F -10.5 °F -6.9 °F 70% 30.02 in 10.0 mi WNW 5.8 mph - N/A   Clear
12:32 PM 1.2 °F -10.1 °F -6.7 °F 69% 30.01 in 10.0 mi West 5.8 mph - N/A   Clear
12:53 PM 1.6 °F -15.1 °F -6.0 °F 71% 30.01 in 10.0 mi West 11.5 mph - N/A   Clear
1:13 PM 3.2 °F -9.1 °F -4.2 °F 71% 30.00 in 10.0 mi West 6.9 mph - N/A   Clear
1:32 PM 3.2 °F -11.3 °F -4.0 °F 72% 29.99 in 10.0 mi WSW 9.2 mph - N/A   Clear
1:53 PM 3.2 °F -11.3 °F -4.2 °F 71% 29.99 in 10.0 mi West 9.2 mph - N/A   Clear
2:12 PM 3.6 °F -9.8 °F -3.6 °F 72% 29.98 in 10.0 mi WSW 8.1 mph - N/A   Clear
2:33 PM 3.2 °F -9.1 °F -4.2 °F 71% 29.97 in 10.0 mi West 6.9 mph - N/A   Clear
2:53 PM 3.6 °F -3.8 °F -4.0 °F 71% 29.96 in 10.0 mi West 3.5 mph - N/A   Clear
3:12 PM 4.1 °F -3.2 °F -3.5 °F 71% 29.96 in 10.0 mi West 3.5 mph - N/A   Clear
3:33 PM 3.9 °F -6.9 °F -4.0 °F 70% 29.97 in 10.0 mi West 5.8 mph - N/A   Clear
3:53 PM 3.9 °F -5.3 °F -4.0 °F 70% 29.96 in 10.0 mi WSW 4.6 mph - N/A   Clear
4:12 PM 3.7 °F -3.6 °F -4.5 °F 69% 29.95 in 10.0 mi West 3.5 mph - N/A   Clear
4:33 PM 3.2 °F - -4.9 °F 69% 29.95 in 10.0 mi Calm Calm - N/A   Clear
4:53 PM 2.3 °F - -4.9 °F 72% 29.94 in 10.0 mi Calm Calm - N/A   Clear
5:12 PM 1.9 °F - -4.5 °F 74% 29.94 in 10.0 mi Calm Calm - N/A   Clear
5:33 PM 0.3 °F -7.5 °F -4.9 °F 79% 29.92 in 10.0 mi SW 3.5 mph - N/A   Clear
5:53 PM 0.3 °F - -5.1 °F 78% 29.91 in 10.0 mi Calm Calm - N/A   Clear
6:12 PM 0.7 °F - -4.9 °F 77% 29.89 in 10.0 mi Calm Calm - N/A   Clear
6:32 PM 1.2 °F -6.4 °F -4.7 °F 76% 29.89 in 10.0 mi South 3.5 mph - N/A   Clear
6:53 PM 1.9 °F - -4.0 °F 76% 29.90 in 10.0 mi Calm Calm - N/A   Mostly Cloudy
7:12 PM 1.4 °F - -4.0 °F 78% 29.89 in 10.0 mi Calm Calm - N/A   Overcast
7:32 PM 2.1 °F -7.4 °F -3.5 °F 77% 29.87 in 10.0 mi SSE 4.6 mph - N/A   Overcast
7:53 PM 3.2 °F -7.8 °F -2.0 °F 79% 29.85 in 10.0 mi SE 5.8 mph - N/A   Overcast
8:12 PM 4.1 °F -6.7 °F -1.3 °F 78% 29.83 in 10.0 mi SE 5.8 mph - N/A   Overcast
8:32 PM 4.6 °F -6.0 °F -0.8 °F 78% 29.81 in 10.0 mi SE 5.8 mph - N/A   Overcast
8:53 PM 5.5 °F -6.3 °F -0.0 °F 78% 29.80 in 10.0 mi SSE 6.9 mph - N/A   Overcast
9:12 PM 5.9 °F -8.0 °F -0.0 °F 77% 29.77 in 10.0 mi SE 9.2 mph - N/A   Overcast
9:32 PM 6.8 °F -5.9 °F 0.5 °F 75% 29.76 in 10.0 mi SE 8.1 mph - N/A   Overcast
9:53 PM 8.2 °F -5.1 °F 0.7 °F 71% 29.74 in 10.0 mi SE 9.2 mph - N/A   Overcast
10:12 PM 8.6 °F -6.3 °F 1.2 °F 72% 29.72 in 10.0 mi SSE 11.5 mph - N/A Snow Light Snow
10:32 PM 9.1 °F -5.6 °F 2.5 °F 74% 29.70 in 7.0 mi SE 11.5 mph - N/A Snow Light Snow
10:53 PM 8.8 °F -6.8 °F 3.2 °F 78% 29.68 in 3.0 mi SE 12.7 mph - N/A Snow Light Snow
11:12 PM 9.1 °F -5.6 °F 4.5 °F 81% 29.67 in 2.5 mi SE 11.5 mph - N/A Snow Light Snow
11:32 PM 9.1 °F -5.6 °F 5.2 °F 84% 29.65 in 1.5 mi SE 11.5 mph - N/A Snow Light Snow
11:53 PM 9.5 °F -6.6 °F 5.9 °F 85% 29.62 in 2.0 mi SE 13.8 mph - N/A Snow Light Snow